Regional Weather Roundup
Issued by NWS

Home | Current Version | Previous Version | Graphics & Text | Print | Product List | Glossary Off
Versions: 1 2 3 4 5 6 7 8 9 10 11 12 13 14 15 16 17 18 19 20 21 22 23 24 25 26 27 28 29 30 31 32 33 34 35 36 37 38 39 40 41 42 43 44 45 46 47 48 49 50

000
ASUS43 KMKX 241459
RWRWI

WISCONSIN REGIONAL WEATHER ROUNDUP
NATIONAL WEATHER SERVICE MILWAUKEE/SULLIVAN WI
1000 AM CDT TUE APR 24 2018

NOTE: "FAIR" INDICATES FEW OR NO CLOUDS BELOW 12,000 FEET WITH NO
SIGNIFICANT WEATHER AND/OR OBSTRUCTIONS TO VISIBILITY.

WIZ001-002-006>008-014>016-023>028-241600-
NORTHWEST WISCONSIN

CITY           SKY/WX    TMP DP  RH WIND       PRES   REMARKS
SUPERIOR ARPT  CLOUDY    47  31  54 NE13G20   30.23R
ASHLAND        FAIR      48  32  53 NE14      30.21S
HAYWARD        FAIR      55  31  39 N14       30.16S
SIREN          PTSUNNY   54  30  39 NE9       30.18R
CUMBERLAND     FAIR      52  32  46 N7        30.14R
RICE LAKE      FAIR      53  35  50 N9        30.15R
CHETEK         FAIR      53  36  52 NW3       30.12S
LADYSMITH      FAIR      57  35  43 NE8       30.14S
EAU CLAIRE     NOT AVBL
MENOMONIE      FAIR      58  35  43 NW3       30.12S
NEW RICHMOND   FAIR      55  37  50 N5        30.13S
OSCEOLA        FAIR      53  37  54 N8        30.17S
$$

WIZ003>005-009-010-017-018-241600-
NORTH CENTRAL WISCONSIN

CITY           SKY/WX    TMP DP  RH WIND       PRES   REMARKS
MANITOWISH WTR CLOUDY    48  31  50 NE7       30.14S
ARBOR VITAE    FAIR      47  32  55 N10       30.12F
WOODRUFF       FAIR      47  32  55 N10       30.12F
RHINELANDER    FAIR      57  31  37 N3        30.11F
EAGLE RIVER    FAIR      51  28  41 N6        30.11S
LAND O LAKES   CLOUDY    48  30  49 N7        30.14S
PHILLIPS       FAIR      53  33  45 N6        30.12F
TOMAHAWK       FAIR      54  31  41 CALM      30.12S
MEDFORD        FAIR      57  35  42 N3        30.10F
MERRILL        FAIR      55  34  44 CALM      30.11F
$$

WIZ029-030-035-036-043>047-241600-
CENTRAL WISCONSIN

CITY           SKY/WX    TMP DP  RH WIND       PRES   REMARKS
WAUSAU         FAIR      60  31  33 N6        30.09S
MOSINEE        MOSUNNY   57  34  41 NW6       30.11F
MARSHFIELD     FAIR      62  34  35 N7        30.09F
STEVENS POINT  FAIR      57  31  36 N5        30.11S
WAUPACA        FAIR      62  30  30 N3        30.09F
WAUTOMA        FAIR      63  31  30 VRB3      30.09F
WISC RAPIDS    FAIR      61  30  31 VRB5      30.11F
CAMP DOUGLAS   NOT AVBL
$$

WIZ011>013-019>022-031-037>040-048>050-241600-
NORTHEAST WISCONSIN

CITY           SKY/WX    TMP DP  RH WIND       PRES   REMARKS
ANTIGO         FAIR      55  38  53 N3        30.10S
SHAWANO        FAIR      57  30  35 E3        30.09S
OCONTO         FAIR      54  31  42 CALM      30.09F
STURGEON BAY   FAIR      56  28  34 CALM      30.10F
GREEN BAY      FAIR      57  31  37 E3        30.09F
MANITOWOC      FAIR      53  33  46 NE7       30.09F
APPLETON       MOSUNNY   57  23  26 N6        30.07F
CLINTONVILLE   FAIR      53  30  40 CALM      30.09F
OSHKOSH        FAIR      58  33  39 N6        30.08F
$$

WIZ032>034-041-042-053>061-241600-
SOUTHWEST WISCONSIN

CITY           SKY/WX    TMP DP  RH WIND       PRES   REMARKS
LA CROSSE      FAIR      58  39  49 VRB3      30.10F
SPARTA         FAIR      56  32  40 CALM      30.12S
VIROQUA        FAIR      61  35  38 N6        30.11S
BOSCOBEL       FAIR      58  34  40 CALM      30.11F
PRAIRIE DU CHI FAIR      53  35  50 CALM      30.11F
PLATTEVILLE    FAIR      61  31  32 N8        30.10F
$$

WIZ056-057-062-063-064-067-068-241600-
SOUTH CENTRAL WISCONSIN

CITY           SKY/WX    TMP DP  RH WIND       PRES   REMARKS
REEDSBURG      FAIR      57  34  41 CALM      30.10F
BARABOO/DELLS  FAIR      56  30  37 NW3       30.10F
LONE ROCK      NOT AVBL
MINERAL POINT  FAIR      61  28  29 N8        30.10S
MADISON        FAIR      60  31  33 N13       30.08F
MIDDLETON      FAIR      60  30  31 N9        30.09F
WATERTOWN      FAIR      56  32  39 N8        30.07F
MONROE         FAIR      59  30  33 N12G17    30.07F
JANESVILLE     MOSUNNY   63  25  23 N8        30.06F
$$

WIZ051-052-058>065-066-070>072-241600-
SOUTHEAST WISCONSIN

CITY           SKY/WX    TMP DP  RH WIND       PRES   REMARKS
MILWAUKEE      PTSUNNY   53  33  46 N6        30.09S
WAUKESHA       SUNNY     55  28  35 N10       30.09S
MILWAUKEE/TIMM SUNNY     54  27  35 NE5       30.09S
RACINE         CLOUDY    49  35  58 N8        30.09F
BURLINGTON     FAIR      55  30  39 CALM      30.08S
KENOSHA        CLOUDY    52  36  54 N5        30.07F
FOND DU LAC    FAIR      56  35  45 N6        30.08F
SHEBOYGAN      FAIR      57  36  45 N8        30.07F
WEST BEND      FAIR      55  27  33 NE5       30.08S
JUNEAU         FAIR      55  32  41 N9        30.09F
$$

LSZ147-162-241600-
LAKE SUPERIOR

STATION/POSITION TIME  TEMP    WIND        PRES    WAVE
                       AIR SEA DIR/SP/G            HT/PER
                 (UTC) (F)     (DEG/KT/KT) (MB)    (FT/S)
DEVILS ISLAND    1400   40      40/ 13/ 13 1024.2R
SAXON HARBOR     1440   36     320/  6/  8 1022.4R
$$

LMZ867-665-643>646-241600-
LAKE MICHIGAN

STATION/POSITION TIME  TEMP    WIND        PRES    WAVE
                       AIR SEA DIR/SP/G            HT/PER
                 (UTC) (F)     (DEG/KT/KT) (MB)    (FT/S)
NORTHPORT PIER   1440   50                 1019.3F
KEWAUNEE LAKESHO 1424   47      30/  6/  8 1018.5
SHEBOYGAN LAKESH 1400   39     350/ 10/ 10 1019.2F
PORT WASHINGTON  1430   47     100/  3/  5 1019.6F
MILWAUKEE LAKESH 1430   41      50/  9/  9   N/A
KENOSHA   LAKESH 1400   41                 1018.6
$$

TC  - TEMPERATURE IN CELSIUS
VSB - VISIBILITY IN STATUTE MILES
WCI - WIND CHILL INDEX
HX  - HEAT INDEX





USA.gov is the U.S. government's official web portal to all federal, state and local government web resources and services.